Regional Weather Roundup
Issued by NWS Lake Charles, LA

Home | Current Version | Previous Version | Text Only | Print | Product List | Glossary On
Versions: 1 2 3 4 5 6 7 8 9 10 11 12 13 14 15 16 17 18 19 20 21 22 23 24 25 26 27
000
ASUS44 KLCH 282210
RWRLCH
REGIONAL WEATHER ROUNDUP
NATIONAL WEATHER SERVICE LAKE CHARLES LA
500 PM CDT SUN AUG 28 2016

Note: "fair" indicates few or no clouds below 12,000 feet with no
significant weather and/or obstructions to visibility.


ACROSS SOUTHEAST TEXAS

CITY           SKY/WX    TMP DP  RH WIND       PRES   REMARKS
BEAUMONT       TSTM      81  75  82 NE15G23   29.91F
BEAUMONT CITY  MOCLDY    83  74  76 NE13G18   29.93F
ORANGE         CLOUDY    81  70  69 E18       29.94F
JASPER         RAIN      75  73  94 N5        30.00F
$$

ACROSS CENTRAL LOUISIANA

CITY           SKY/WX    TMP DP  RH WIND       PRES   REMARKS
LEESVILLE      CLOUDY    81  76  83 SW7       29.97R
FULLERTON      FAIR      86  75  69 CALM      29.94S
ALEXANDRIA INT CLOUDY    89  71  55 E9G16     29.94S
ESLER FIELD    MOSUNNY   89  76  65 CALM      29.96S HX 100
DERIDDER       CLOUDY    74  73  95 CALM      29.98F
OAKDALE        CLOUDY    78  76  92 CALM      29.96F
OPELOUSAS      FAIR      83  73  72 SE6       29.96S
$$

ACROSS SOUTHWEST AND SOUTH CENTRAL LOUISIANA

CITY           SKY/WX    TMP DP  RH WIND       PRES   REMARKS
SULPHUR        CLOUDY    77  74  89 CALM      29.93F
LAKE CHARLES   LGT RAIN  76  32  20 E14       29.90F
CHENNAULT INT  PTSUNNY   75  73  94 NE8       29.92F
CAMERON PHI    NOT AVBL
DEQUINCY       FAIR      74  74 100 NE5       29.94F
JENNINGS       NOT AVBL
LAFAYETTE      CLOUDY    84  76  76 NE3       29.95F
NEW IBERIA     PTSUNNY   86  73  65 E6        29.94F
ABBEVILLE      FAIR      81  78  91 CALM      29.95S
PATTERSON      CLOUDY    86  77  74 E6        29.94F
SALT POINT       N/A     86  73  65 VRB7      29.92S
$$

SELECTED SITES ACROSS THE REGION

CITY           SKY/WX    TMP DP  RH WIND       PRES   REMARKS
HOUSTON BUSH   LGT RAIN  80  72  76 NE23G33   29.92S
HOUSTON HOBBY  TSTM      81  75  82 NE26G37   29.91S
GALVESTON      PTSUNNY   80  77  90 N10       29.91F
COLLEGE STAT   LGT RAIN  77  74  90 E6        29.96R
CONROE         CLOUDY    82  74  76 E8        29.93F
HUNTSVILLE     CLOUDY    86  73  65 VRB6G17   29.95F
LUFKIN         LGT RAIN  72  70  93 CALM      29.97F
SHREVEPORT     PTSUNNY   88  74  63 NE10      29.99R THUNDER
MONROE         MOSUNNY   91  72  53 E9        29.98F
NATCHEZ MS     NOT AVBL
BATON ROUGE    PTSUNNY   88  74  63 NE7       29.95S
N.O. INTL ARPT CLOUDY    87  75  67 SE7       29.97S THUNDER
SLIDELL        CLOUDY    80  76  87 CALM      29.98F
$$

MARINE REPORTS

STATION/POSITION TIME  SKY/WX   TEMP    WIND        PRES    VSBY
                                AIR SEA DIR/SP/G
                 (UTC)          (F)     (DEG/KT/KT) (MB)    (MI)
BUOY 30 S HIGH I 2150            83 85   70/ 14/ 17 1012.1F
WVE H/P(F/S)=  2/ 4

SEA RIM ST PARK  2200            74      10/  7/  8 1013.8F
PORT ARTHUR      2100               86   40/  7/ 12 1013.8F
SABINE PASS N    2100            80 86   30/ 12/ 15 1014.7F
TEXAS POINT      NOT AVBL
CALCASIEU PASS   2100            78 85   80/ 13/ 23 1012.9F
LK CHARLES BEACH 2100            73 81              1015.7F
MARSH ISLAND     2100            81                   N/A
FRESH WATER LOCK 2100            81 85   60/  7/ 10 1014.8F
AMERADA PASS     2100            85 85   90/ 14/ 20 1013.5F
$$




USA.gov is the U.S. government's official web portal to all federal, state and local government web resources and services.